Wetterdaten: Samstag, 08.08.2015
Datum Zeit Temp. A. Feuchte A. Luftdruck Regen Wind Richtung Richtung Sonnenschein ET UV Solar Taupunkt Windchill Windben Empfang
08.08.2015 00:02 23,1 C 57 % 1015,2 hPa 0,0 l/m 0,0 km/h (0 Bft) O 82 0 min 0,000 mm 0,0 UV-I 0 W/m 14,1 C 23,1 C 0,0 km/h (0 Bft) 0,00 %
08.08.2015 00:07 23,0 C 56 % 1015,3 hPa 0,0 l/m 0,0 km/h (0 Bft) NO 53 0 min 0,000 mm 0,0 UV-I 0 W/m 13,7 C 23,0 C 0,0 km/h (0 Bft) 0,00 %
08.08.2015 00:12 23,1 C 57 % 1015,3 hPa 0,0 l/m 0,0 km/h (0 Bft) O 81 0 min 0,000 mm 0,0 UV-I 0 W/m 14,1 C 23,1 C 0,0 km/h (0 Bft) 0,00 %
08.08.2015 00:17 23,1 C 57 % 1015,4 hPa 0,0 l/m 0,0 km/h (0 Bft) NO 51 0 min 0,000 mm 0,0 UV-I 0 W/m 14,1 C 23,1 C 0,0 km/h (0 Bft) 0,00 %
08.08.2015 00:22 23,0 C 60 % 1015,5 hPa 0,0 l/m 0,0 km/h (0 Bft) NO 55 0 min 0,000 mm 0,0 UV-I 0 W/m 14,8 C 23,0 C 0,0 km/h (0 Bft) 0,00 %
08.08.2015 00:27 22,8 C 60 % 1015,4 hPa 0,0 l/m 0,0 km/h (0 Bft) O-NO 77 0 min 0,000 mm 0,0 UV-I 0 W/m 14,6 C 22,8 C 0,0 km/h (0 Bft) 0,00 %
08.08.2015 00:32 22,7 C 60 % 1015,4 hPa 0,0 l/m 0,0 km/h (0 Bft) O-NO 71 0 min 0,000 mm 0,0 UV-I 0 W/m 14,5 C 22,7 C 0,0 km/h (0 Bft) 0,00 %
08.08.2015 00:37 22,5 C 60 % 1015,4 hPa 0,0 l/m 0,0 km/h (0 Bft) O-NO 61 0 min 0,000 mm 0,0 UV-I 0 W/m 14,3 C 22,5 C 0,0 km/h (0 Bft) 0,00 %
08.08.2015 00:42 22,3 C 61 % 1015,4 hPa 0,0 l/m 0,0 km/h (0 Bft) O-NO 73 0 min 0,000 mm 0,0 UV-I 0 W/m 14,4 C 22,3 C 0,0 km/h (0 Bft) 0,00 %
08.08.2015 00:47 22,2 C 61 % 1015,5 hPa 0,0 l/m 0,0 km/h (0 Bft) O-NO 70 0 min 0,000 mm 0,0 UV-I 0 W/m 14,3 C 22,2 C 0,0 km/h (0 Bft) 0,00 %
08.08.2015 00:52 22,2 C 61 % 1015,6 hPa 0,0 l/m 0,0 km/h (0 Bft) NO 55 0 min 0,000 mm 0,0 UV-I 0 W/m 14,3 C 22,2 C 0,0 km/h (0 Bft) 0,00 %
08.08.2015 00:57 22,1 C 62 % 1015,5 hPa 0,0 l/m 0,0 km/h (0 Bft) NO 56 0 min 0,000 mm 0,0 UV-I 0 W/m 14,5 C 22,1 C 0,0 km/h (0 Bft) 0,00 %
08.08.2015 01:03 22,0 C 63 % 1015,5 hPa 0,0 l/m 0,0 km/h (0 Bft) NO 38 0 min 0,000 mm 0,0 UV-I 0 W/m 14,6 C 22,0 C 0,0 km/h (0 Bft) 0,00 %
08.08.2015 01:08 21,8 C 63 % 1015,5 hPa 0,0 l/m 0,0 km/h (0 Bft) NO 43 0 min 0,000 mm 0,0 UV-I 0 W/m 14,4 C 21,8 C 0,0 km/h (0 Bft) 0,00 %
08.08.2015 01:13 21,6 C 64 % 1015,4 hPa 0,0 l/m 0,0 km/h (0 Bft) N-NO 31 0 min 0,000 mm 0,0 UV-I 0 W/m 14,5 C 21,6 C 0,0 km/h (0 Bft) 0,00 %
08.08.2015 01:18 21,4 C 64 % 1015,6 hPa 0,0 l/m 0,0 km/h (0 Bft) N-NO 27 0 min 0,000 mm 0,0 UV-I 0 W/m 14,3 C 21,4 C 0,0 km/h (0 Bft) 0,00 %
08.08.2015 01:23 21,2 C 65 % 1015,6 hPa 0,0 l/m 0,0 km/h (0 Bft) NO 47 0 min 0,000 mm 0,0 UV-I 0 W/m 14,4 C 21,2 C 0,0 km/h (0 Bft) 0,00 %
08.08.2015 01:28 21,1 C 68 % 1015,5 hPa 0,0 l/m 0,0 km/h (0 Bft) NO 47 0 min 0,000 mm 0,0 UV-I 0 W/m 15,0 C 21,1 C 0,0 km/h (0 Bft) 0,00 %
08.08.2015 01:33 20,9 C 68 % 1015,4 hPa 0,0 l/m 0,0 km/h (0 Bft) O-NO 58 0 min 0,000 mm 0,0 UV-I 0 W/m 14,8 C 20,9 C 0,0 km/h (0 Bft) 0,00 %
08.08.2015 01:38 20,8 C 68 % 1015,3 hPa 0,0 l/m 0,0 km/h (0 Bft) O-NO 58 0 min 0,000 mm 0,0 UV-I 0 W/m 14,7 C 20,8 C 0,0 km/h (0 Bft) 0,00 %
08.08.2015 01:43 20,6 C 68 % 1015,5 hPa 0,0 l/m 0,0 km/h (0 Bft) NO 50 0 min 0,000 mm 0,0 UV-I 0 W/m 14,5 C 20,6 C 0,0 km/h (0 Bft) 0,00 %
08.08.2015 01:48 20,4 C 69 % 1015,5 hPa 0,0 l/m 0,0 km/h (0 Bft) N-NO 19 0 min 0,000 mm 0,0 UV-I 0 W/m 14,5 C 20,4 C 0,0 km/h (0 Bft) 0,00 %
08.08.2015 01:53 20,4 C 70 % 1015,5 hPa 0,0 l/m 0,0 km/h (0 Bft) N-NO 17 0 min 0,000 mm 0,0 UV-I 0 W/m 14,7 C 20,4 C 0,0 km/h (0 Bft) 0,00 %
08.08.2015 01:58 20,3 C 70 % 1015,4 hPa 0,0 l/m 0,0 km/h (0 Bft) N-NO 32 0 min 0,000 mm 0,0 UV-I 0 W/m 14,6 C 20,3 C 0,0 km/h (0 Bft) 0,00 %
08.08.2015 02:03 20,2 C 71 % 1015,3 hPa 0,0 l/m 0,0 km/h (0 Bft) NO 44 0 min 0,000 mm 0,0 UV-I 0 W/m 14,8 C 20,2 C 0,0 km/h (0 Bft) 0,00 %
08.08.2015 02:08 20,0 C 73 % 1015,3 hPa 0,0 l/m 0,0 km/h (0 Bft) O-NO 60 0 min 0,000 mm 0,0 UV-I 0 W/m 15,0 C 20,0 C 0,0 km/h (0 Bft) 0,00 %
08.08.2015 02:13 19,9 C 72 % 1015,3 hPa 0,0 l/m 0,0 km/h (0 Bft) NO 56 0 min 0,000 mm 0,0 UV-I 0 W/m 14,7 C 19,9 C 0,0 km/h (0 Bft) 0,00 %
08.08.2015 02:18 19,7 C 73 % 1015,4 hPa 0,0 l/m 0,0 km/h (0 Bft) NO 44 0 min 0,000 mm 0,0 UV-I 0 W/m 14,7 C 19,7 C 0,0 km/h (0 Bft) 0,00 %
08.08.2015 02:23 19,6 C 73 % 1015,4 hPa 0,0 l/m 0,0 km/h (0 Bft) NO 48 0 min 0,000 mm 0,0 UV-I 0 W/m 14,6 C 19,6 C 0,0 km/h (0 Bft) 0,00 %
08.08.2015 02:28 19,5 C 73 % 1015,3 hPa 0,0 l/m 0,0 km/h (0 Bft) NO 49 0 min 0,000 mm 0,0 UV-I 0 W/m 14,5 C 19,5 C 0,0 km/h (0 Bft) 0,00 %
08.08.2015 02:33 19,4 C 73 % 1015,3 hPa 0,0 l/m 0,0 km/h (0 Bft) NO 43 0 min 0,000 mm 0,0 UV-I 0 W/m 14,4 C 19,4 C 0,0 km/h (0 Bft) 0,00 %
08.08.2015 02:38 19,4 C 74 % 1015,4 hPa 0,0 l/m 0,0 km/h (0 Bft) NO 43 0 min 0,000 mm 0,0 UV-I 0 W/m 14,6 C 19,4 C 0,0 km/h (0 Bft) 0,00 %
08.08.2015 02:43 19,3 C 74 % 1015,4 hPa 0,0 l/m 0,0 km/h (0 Bft) NO 45 0 min 0,000 mm 0,0 UV-I 0 W/m 14,5 C 19,3 C 0,0 km/h (0 Bft) 0,00 %
08.08.2015 02:48 19,3 C 75 % 1015,1 hPa 0,0 l/m 0,0 km/h (0 Bft) NO 48 0 min 0,000 mm 0,0 UV-I 0 W/m 14,8 C 19,3 C 0,0 km/h (0 Bft) 0,00 %
08.08.2015 02:53 19,2 C 76 % 1015,4 hPa 0,0 l/m 0,0 km/h (0 Bft) O-NO 65 0 min 0,000 mm 0,0 UV-I 0 W/m 14,9 C 19,2 C 0,0 km/h (0 Bft) 0,00 %
08.08.2015 02:58 19,1 C 75 % 1015,1 hPa 0,0 l/m 0,0 km/h (0 Bft) NO 51 0 min 0,000 mm 0,0 UV-I 0 W/m 14,6 C 19,1 C 0,0 km/h (0 Bft) 0,00 %
08.08.2015 03:03 19,0 C 75 % 1015,2 hPa 0,0 l/m 0,0 km/h (0 Bft) N-NO 28 0 min 0,000 mm 0,0 UV-I 0 W/m 14,5 C 19,0 C 0,0 km/h (0 Bft) 0,00 %
08.08.2015 03:08 19,0 C 74 % 1015,2 hPa 0,0 l/m 0,0 km/h (0 Bft) NO 47 0 min 0,000 mm 0,0 UV-I 0 W/m 14,3 C 19,0 C 0,0 km/h (0 Bft) 0,00 %
08.08.2015 03:13 19,0 C 75 % 1015,2 hPa 0,0 l/m 0,0 km/h (0 Bft) NO 44 0 min 0,000 mm 0,0 UV-I 0 W/m 14,5 C 19,0 C 0,0 km/h (0 Bft) 0,00 %
08.08.2015 03:18 19,0 C 75 % 1015,4 hPa 0,0 l/m 0,0 km/h (0 Bft) NO 49 0 min 0,000 mm 0,0 UV-I 0 W/m 14,5 C 19,0 C 0,0 km/h (0 Bft) 0,00 %
08.08.2015 03:23 18,9 C 77 % 1015,5 hPa 0,0 l/m 0,0 km/h (0 Bft) NO 51 0 min 0,000 mm 0,0 UV-I 0 W/m 14,8 C 18,9 C 0,0 km/h (0 Bft) 0,00 %
08.08.2015 03:28 18,9 C 78 % 1015,1 hPa 0,0 l/m 0,0 km/h (0 Bft) NO 48 0 min 0,000 mm 0,0 UV-I 0 W/m 15,0 C 18,9 C 0,0 km/h (0 Bft) 0,00 %
08.08.2015 03:33 18,8 C 79 % 1015,1 hPa 0,0 l/m 0,0 km/h (0 Bft) NO 46 0 min 0,000 mm 0,0 UV-I 0 W/m 15,1 C 18,8 C 0,0 km/h (0 Bft) 0,00 %
08.08.2015 03:38 18,7 C 79 % 1015,2 hPa 0,0 l/m 0,0 km/h (0 Bft) NO 43 0 min 0,000 mm 0,0 UV-I 0 W/m 15,0 C 18,7 C 0,0 km/h (0 Bft) 0,00 %
08.08.2015 03:43 18,6 C 80 % 1015,2 hPa 0,0 l/m 0,0 km/h (0 Bft) NO 48 0 min 0,000 mm 0,0 UV-I 0 W/m 15,1 C 18,6 C 0,0 km/h (0 Bft) 0,00 %
08.08.2015 03:48 18,4 C 80 % 1015,2 hPa 0,0 l/m 0,0 km/h (0 Bft) O-NO 65 0 min 0,000 mm 0,0 UV-I 0 W/m 14,9 C 18,4 C 0,0 km/h (0 Bft) 0,00 %
08.08.2015 03:53 18,2 C 80 % 1015,3 hPa 0,0 l/m 0,0 km/h (0 Bft) NO 50 0 min 0,000 mm 0,0 UV-I 0 W/m 14,7 C 18,2 C 0,0 km/h (0 Bft) 0,00 %
08.08.2015 03:58 18,2 C 79 % 1015,1 hPa 0,0 l/m 0,0 km/h (0 Bft) NO 46 0 min 0,000 mm 0,0 UV-I 0 W/m 14,5 C 18,2 C 0,0 km/h (0 Bft) 0,00 %
08.08.2015 04:03 18,2 C 79 % 1015,3 hPa 0,0 l/m 0,0 km/h (0 Bft) O-NO 61 0 min 0,000 mm 0,0 UV-I 0 W/m 14,5 C 18,2 C 0,0 km/h (0 Bft) 0,00 %
08.08.2015 04:08 18,2 C 80 % 1015,2 hPa 0,0 l/m 0,0 km/h (0 Bft) NO 52 0 min 0,000 mm 0,0 UV-I 0 W/m 14,7 C 18,2 C 0,0 km/h (0 Bft) 0,00 %
08.08.2015 04:13 18,2 C 79 % 1015,2 hPa 0,0 l/m 0,0 km/h (0 Bft) NO 48 0 min 0,000 mm 0,0 UV-I 0 W/m 14,5 C 18,2 C 0,0 km/h (0 Bft) 0,00 %
08.08.2015 04:18 18,1 C 79 % 1015,2 hPa 0,0 l/m 0,0 km/h (0 Bft) NO 55 0 min 0,000 mm 0,0 UV-I 0 W/m 14,4 C 18,1 C 0,0 km/h (0 Bft) 0,00 %
08.08.2015 04:23 18,0 C 80 % 1015,3 hPa 0,0 l/m 0,0 km/h (0 Bft) NO 50 0 min 0,000 mm 0,0 UV-I 0 W/m 14,5 C 18,0 C 0,0 km/h (0 Bft) 0,00 %
08.08.2015 04:28 18,0 C 80 % 1015,2 hPa 0,0 l/m 0,0 km/h (0 Bft) N-NW 344 0 min 0,000 mm 0,0 UV-I 0 W/m 14,5 C 18,0 C 0,0 km/h (0 Bft) 0,00 %
08.08.2015 04:33 18,0 C 81 % 1015,2 hPa 0,0 l/m 0,0 km/h (0 Bft) NO 48 0 min 0,000 mm 0,0 UV-I 0 W/m 14,7 C 18,0 C 0,0 km/h (0 Bft) 0,00 %
08.08.2015 04:38 18,0 C 82 % 1015,2 hPa 0,0 l/m 0,0 km/h (0 Bft) NO 50 0 min 0,000 mm 0,0 UV-I 0 W/m 14,9 C 18,0 C 0,0 km/h (0 Bft) 0,00 %
08.08.2015 04:43 17,9 C 82 % 1015,1 hPa 0,0 l/m 0,0 km/h (0 Bft) NO 42 0 min 0,000 mm 0,0 UV-I 0 W/m 14,8 C 17,9 C 0,0 km/h (0 Bft) 0,00 %
08.08.2015 04:48 17,8 C 82 % 1015,3 hPa 0,0 l/m 0,0 km/h (0 Bft) NO 52 0 min 0,000 mm 0,0 UV-I 0 W/m 14,7 C 17,8 C 0,0 km/h (0 Bft) 0,00 %
08.08.2015 04:53 17,8 C 82 % 1015,2 hPa 0,0 l/m 0,0 km/h (0 Bft) NO 49 0 min 0,000 mm 0,0 UV-I 0 W/m 14,7 C 17,8 C 0,0 km/h (0 Bft) 0,00 %
08.08.2015 04:58 17,7 C 82 % 1015,5 hPa 0,0 l/m 0,0 km/h (0 Bft) NO 49 0 min 0,000 mm 0,0 UV-I 0 W/m 14,6 C 17,7 C 0,0 km/h (0 Bft) 0,00 %
08.08.2015 05:03 17,7 C 83 % 1015,4 hPa 0,0 l/m 0,0 km/h (0 Bft) NO 54 0 min 0,000 mm 0,0 UV-I 0 W/m 14,8 C 17,7 C 0,0 km/h (0 Bft) 0,00 %
08.08.2015 05:08 17,6 C 83 % 1015,3 hPa 0,0 l/m 0,0 km/h (0 Bft) NO 54 0 min 0,000 mm 0,0 UV-I 0 W/m 14,7 C 17,6 C 0,0 km/h (0 Bft) 0,00 %
08.08.2015 05:13 17,6 C 83 % 1015,4 hPa 0,0 l/m 0,0 km/h (0 Bft) NO 43 0 min 0,000 mm 0,0 UV-I 0 W/m 14,7 C 17,6 C 0,0 km/h (0 Bft) 0,00 %
08.08.2015 05:18 17,5 C 83 % 1015,3 hPa 0,0 l/m 0,0 km/h (0 Bft) NO 43 0 min 0,000 mm 0,0 UV-I 0 W/m 14,6 C 17,5 C 0,0 km/h (0 Bft) 0,00 %
08.08.2015 05:23 17,4 C 83 % 1015,5 hPa 0,0 l/m 0,0 km/h (0 Bft) NO 47 0 min 0,000 mm 0,0 UV-I 0 W/m 14,5 C 17,4 C 0,0 km/h (0 Bft) 0,00 %
08.08.2015 05:28 17,3 C 84 % 1015,5 hPa 0,0 l/m 0,0 km/h (0 Bft) NO 48 0 min 0,000 mm 0,0 UV-I 0 W/m 14,6 C 17,3 C 0,0 km/h (0 Bft) 0,00 %
08.08.2015 05:33 17,2 C 84 % 1015,7 hPa 0,0 l/m 0,0 km/h (0 Bft) NO 40 0 min 0,000 mm 0,0 UV-I 0 W/m 14,5 C 17,2 C 0,0 km/h (0 Bft) 0,00 %
08.08.2015 05:38 17,1 C 84 % 1015,6 hPa 0,0 l/m 0,0 km/h (0 Bft) NO 47 0 min 0,000 mm 0,0 UV-I 0 W/m 14,4 C 17,1 C 0,0 km/h (0 Bft) 0,00 %
08.08.2015 05:43 16,9 C 85 % 1015,6 hPa 0,0 l/m 0,0 km/h (0 Bft) NO 53 0 min 0,000 mm 0,0 UV-I 0 W/m 14,4 C 16,9 C 0,0 km/h (0 Bft) 0,00 %
08.08.2015 05:48 16,8 C 85 % 1015,7 hPa 0,0 l/m 0,0 km/h (0 Bft) NO 51 0 min 0,000 mm 0,0 UV-I 0 W/m 14,3 C 16,8 C 0,0 km/h (0 Bft) 0,00 %
08.08.2015 05:53 16,8 C 85 % 1015,7 hPa 0,0 l/m 0,0 km/h (0 Bft) O-NO 58 0 min 0,000 mm 0,0 UV-I 3 W/m 14,3 C 16,8 C 0,0 km/h (0 Bft) 0,00 %
08.08.2015 05:58 16,8 C 85 % 1015,7 hPa 0,0 l/m 0,0 km/h (0 Bft) NO 46 0 min 0,000 mm 0,0 UV-I 8 W/m 14,3 C 16,8 C 0,0 km/h (0 Bft) 0,00 %
08.08.2015 06:03 16,9 C 86 % 1015,6 hPa 0,0 l/m 0,0 km/h (0 Bft) NO 42 5 min 0,000 mm 0,0 UV-I 18 W/m 14,5 C 16,9 C 0,0 km/h (0 Bft) 0,00 %
08.08.2015 06:08 17,0 C 85 % 1015,8 hPa 0,0 l/m 0,0 km/h (0 Bft) NO 35 5 min 0,000 mm 0,0 UV-I 28 W/m 14,5 C 17,0 C 0,0 km/h (0 Bft) 0,00 %
08.08.2015 06:13 17,1 C 85 % 1016,0 hPa 0,0 l/m 0,0 km/h (0 Bft) N 356 5 min 0,000 mm 0,0 UV-I 41 W/m 14,6 C 17,1 C 0,0 km/h (0 Bft) 0,00 %
08.08.2015 06:18 17,3 C 84 % 1016,0 hPa 0,0 l/m 0,0 km/h (0 Bft) N-NO 15 5 min 0,000 mm 0,0 UV-I 57 W/m 14,6 C 17,3 C 0,0 km/h (0 Bft) 0,00 %
08.08.2015 06:23 17,6 C 83 % 1016,0 hPa 0,0 l/m 0,0 km/h (0 Bft) NO 45 5 min 0,000 mm 0,0 UV-I 73 W/m 14,7 C 17,6 C 0,0 km/h (0 Bft) 0,00 %
08.08.2015 06:28 18,0 C 82 % 1015,9 hPa 0,0 l/m 0,0 km/h (0 Bft) NO 44 5 min 0,000 mm 0,0 UV-I 89 W/m 14,9 C 18,0 C 0,0 km/h (0 Bft) 0,00 %
08.08.2015 06:33 18,5 C 80 % 1016,0 hPa 0,0 l/m 0,0 km/h (0 Bft) NO 51 5 min 0,000 mm 0,0 UV-I 105 W/m 15,0 C 18,5 C 0,0 km/h (0 Bft) 0,00 %
08.08.2015 06:38 19,0 C 78 % 1015,8 hPa 0,0 l/m 0,0 km/h (0 Bft) NO 41 5 min 0,000 mm 0,0 UV-I 121 W/m 15,1 C 19,0 C 0,0 km/h (0 Bft) 0,00 %
08.08.2015 06:43 19,5 C 75 % 1016,1 hPa 0,0 l/m 0,0 km/h (0 Bft) NO 44 5 min 0,000 mm 0,0 UV-I 138 W/m 14,9 C 19,5 C 0,0 km/h (0 Bft) 0,00 %
08.08.2015 06:48 20,0 C 73 % 1016,0 hPa 0,0 l/m 0,0 km/h (0 Bft) NO 44 5 min 0,000 mm 0,0 UV-I 158 W/m 15,0 C 20,0 C 0,0 km/h (0 Bft) 0,00 %
08.08.2015 06:53 20,6 C 70 % 1016,1 hPa 0,0 l/m 0,0 km/h (0 Bft) NO 45 5 min 0,000 mm 0,0 UV-I 174 W/m 14,9 C 20,6 C 0,0 km/h (0 Bft) 0,00 %
08.08.2015 06:58 21,2 C 68 % 1016,1 hPa 0,0 l/m 0,0 km/h (0 Bft) NO 43 5 min 0,000 mm 0,0 UV-I 188 W/m 15,1 C 21,2 C 0,0 km/h (0 Bft) 0,00 %
08.08.2015 07:03 21,8 C 66 % 1016,0 hPa 0,0 l/m 0,0 km/h (0 Bft) NO 43 5 min 0,000 mm 0,0 UV-I 203 W/m 15,2 C 21,8 C 0,0 km/h (0 Bft) 0,00 %
08.08.2015 07:08 22,4 C 65 % 1016,3 hPa 0,0 l/m 0,0 km/h (0 Bft) NO 45 5 min 0,000 mm 1,0 UV-I 215 W/m 15,5 C 22,4 C 0,0 km/h (0 Bft) 0,00 %
08.08.2015 07:13 22,9 C 62 % 1016,2 hPa 0,0 l/m 0,0 km/h (0 Bft) NO 42 5 min 0,000 mm 1,0 UV-I 226 W/m 15,2 C 22,9 C 0,0 km/h (0 Bft) 0,00 %
08.08.2015 07:18 23,2 C 61 % 1016,1 hPa 0,0 l/m 0,0 km/h (0 Bft) NO 46 5 min 0,000 mm 1,0 UV-I 234 W/m 15,3 C 23,2 C 0,0 km/h (0 Bft) 0,00 %
08.08.2015 07:23 23,6 C 60 % 1016,3 hPa 0,0 l/m 0,0 km/h (0 Bft) N-NW 335 5 min 0,000 mm 1,0 UV-I 241 W/m 15,4 C 23,6 C 0,0 km/h (0 Bft) 0,00 %
08.08.2015 07:28 23,9 C 60 % 1016,4 hPa 0,0 l/m 0,0 km/h (0 Bft) NO 43 5 min 0,000 mm 1,0 UV-I 247 W/m 15,7 C 23,9 C 0,0 km/h (0 Bft) 0,00 %
08.08.2015 07:33 24,2 C 59 % 1016,3 hPa 0,0 l/m 0,0 km/h (0 Bft) NO 42 5 min 0,000 mm 1,0 UV-I 253 W/m 15,7 C 24,2 C 0,0 km/h (0 Bft) 0,00 %
08.08.2015 07:38 24,5 C 57 % 1016,2 hPa 0,0 l/m 0,0 km/h (0 Bft) NO 39 5 min 0,000 mm 1,0 UV-I 264 W/m 15,4 C 24,5 C 0,0 km/h (0 Bft) 0,00 %
08.08.2015 07:43 24,8 C 55 % 1016,4 hPa 0,0 l/m 0,0 km/h (0 Bft) N-NO 25 5 min 0,000 mm 1,0 UV-I 276 W/m 15,1 C 24,8 C 0,0 km/h (0 Bft) 0,00 %
08.08.2015 07:48 25,1 C 55 % 1016,4 hPa 0,0 l/m 0,0 km/h (0 Bft) N-NO 13 5 min 0,000 mm 1,0 UV-I 271 W/m 15,4 C 25,1 C 0,0 km/h (0 Bft) 0,00 %
08.08.2015 07:53 25,3 C 53 % 1016,4 hPa 0,0 l/m 0,0 km/h (0 Bft) NO 42 0 min 0,000 mm 1,0 UV-I 166 W/m 15,0 C 25,3 C 0,0 km/h (0 Bft) 0,00 %
08.08.2015 07:58 25,1 C 56 % 1016,3 hPa 0,0 l/m 0,0 km/h (0 Bft) NO 43 0 min 0,000 mm 1,0 UV-I 121 W/m 15,7 C 25,1 C 0,0 km/h (0 Bft) 0,00 %
08.08.2015 08:03 24,7 C 59 % 1016,4 hPa 0,0 l/m 0,0 km/h (0 Bft) N-NW 344 0 min 0,000 mm 1,0 UV-I 126 W/m 16,1 C 24,7 C 0,0 km/h (0 Bft) 0,00 %
08.08.2015 08:08 24,3 C 59 % 1016,5 hPa 0,0 l/m 0,0 km/h (0 Bft) NO 42 0 min 0,000 mm 1,0 UV-I 190 W/m 15,8 C 24,3 C 0,0 km/h (0 Bft) 0,00 %
08.08.2015 08:13 24,2 C 60 % 1016,5 hPa 0,0 l/m 0,0 km/h (0 Bft) NO 42 0 min 0,000 mm 1,0 UV-I 163 W/m 15,9 C 24,2 C 0,0 km/h (0 Bft) 0,00 %
08.08.2015 08:18 24,2 C 60 % 1016,6 hPa 0,0 l/m 0,0 km/h (0 Bft) N 3 5 min 0,000 mm 1,0 UV-I 290 W/m 15,9 C 24,2 C 0,0 km/h (0 Bft) 0,00 %
08.08.2015 08:23 24,3 C 60 % 1016,6 hPa 0,0 l/m 0,0 km/h (0 Bft) NO 36 5 min 0,000 mm 1,0 UV-I 296 W/m 16,0 C 24,3 C 0,0 km/h (0 Bft) 0,00 %
08.08.2015 08:28 24,7 C 55 % 1016,6 hPa 0,0 l/m 0,0 km/h (0 Bft) NO 45 5 min 0,000 mm 1,0 UV-I 307 W/m 15,0 C 24,7 C 0,0 km/h (0 Bft) 0,00 %
08.08.2015 08:33 25,4 C 51 % 1016,6 hPa 0,0 l/m 0,0 km/h (0 Bft) O-NO 61 5 min 0,000 mm 1,0 UV-I 314 W/m 14,5 C 25,4 C 0,0 km/h (0 Bft) 0,00 %
08.08.2015 08:38 26,4 C 48 % 1016,8 hPa 0,0 l/m 0,0 km/h (0 Bft) O-NO 78 5 min 0,000 mm 1,0 UV-I 330 W/m 14,5 C 26,4 C 0,0 km/h (0 Bft) 0,00 %
08.08.2015 08:43 27,3 C 48 % 1016,9 hPa 0,0 l/m 0,0 km/h (0 Bft) N 350 5 min 0,000 mm 1,0 UV-I 332 W/m 15,3 C 27,3 C 0,0 km/h (0 Bft) 0,00 %
08.08.2015 08:48 27,9 C 45 % 1017,0 hPa 0,0 l/m 0,0 km/h (0 Bft) N-NW 340 5 min 0,000 mm 1,0 UV-I 343 W/m 14,8 C 27,9 C 0,0 km/h (0 Bft) 0,00 %
08.08.2015 08:53 28,3 C 47 % 1017,0 hPa 0,0 l/m 0,0 km/h (0 Bft) NO 42 5 min 0,000 mm 1,0 UV-I 354 W/m 15,9 C 28,3 C 0,0 km/h (0 Bft) 0,00 %
08.08.2015 08:58 28,5 C 45 % 1017,0 hPa 0,0 l/m 0,0 km/h (0 Bft) N 350 5 min 0,000 mm 1,0 UV-I 363 W/m 15,4 C 28,5 C 0,0 km/h (0 Bft) 0,00 %
08.08.2015 09:03 28,7 C 45 % 1017,0 hPa 0,0 l/m 0,0 km/h (0 Bft) NO 52 5 min 0,000 mm 1,0 UV-I 379 W/m 15,6 C 28,7 C 0,0 km/h (0 Bft) 0,00 %
08.08.2015 09:08 28,9 C 44 % 1017,0 hPa 0,0 l/m 0,0 km/h (0 Bft) NO 56 5 min 0,000 mm 2,0 UV-I 389 W/m 15,4 C 28,9 C 0,0 km/h (0 Bft) 0,00 %
08.08.2015 09:13 29,2 C 43 % 1017,0 hPa 0,0 l/m 0,0 km/h (0 Bft) NO 44 5 min 0,000 mm 2,0 UV-I 401 W/m 15,3 C 29,2 C 0,0 km/h (0 Bft) 0,00 %
08.08.2015 09:18 29,7 C 42 % 1017,1 hPa 0,0 l/m 0,0 km/h (0 Bft) NO 37 5 min 0,000 mm 2,0 UV-I 412 W/m 15,4 C 29,7 C 0,0 km/h (0 Bft) 0,00 %
08.08.2015 09:23 30,1 C 41 % 1016,8 hPa 0,0 l/m 0,0 km/h (0 Bft) NO 36 5 min 0,000 mm 2,0 UV-I 422 W/m 15,4 C 30,1 C 0,0 km/h (0 Bft) 0,00 %
08.08.2015 09:28 30,3 C 40 % 1017,0 hPa 0,0 l/m 0,0 km/h (0 Bft) NO 35 5 min 0,000 mm 2,0 UV-I 435 W/m 15,2 C 30,3 C 0,0 km/h (0 Bft) 0,00 %
08.08.2015 09:33 30,5 C 42 % 1017,2 hPa 0,0 l/m 0,0 km/h (0 Bft) O-NO 58 5 min 0,000 mm 2,0 UV-I 446 W/m 16,1 C 30,5 C 0,0 km/h (0 Bft) 0,00 %
08.08.2015 09:38 30,6 C 41 % 1017,1 hPa 0,0 l/m 0,0 km/h (0 Bft) NO 47 5 min 0,000 mm 2,0 UV-I 458 W/m 15,8 C 30,6 C 0,0 km/h (0 Bft) 0,00 %
08.08.2015 09:43 30,7 C 41 % 1017,1 hPa 0,0 l/m 0,0 km/h (0 Bft) O-NO 58 5 min 0,000 mm 2,0 UV-I 472 W/m 15,9 C 30,7 C 0,0 km/h (0 Bft) 0,00 %
08.08.2015 09:48 30,7 C 41 % 1017,2 hPa 0,0 l/m 0,0 km/h (0 Bft) NO 38 5 min 0,000 mm 2,0 UV-I 486 W/m 15,9 C 30,7 C 0,0 km/h (0 Bft) 0,00 %
08.08.2015 09:53 30,9 C 39 % 1017,2 hPa 0,0 l/m 0,7 km/h (0 Bft) W 263 5 min 0,000 mm 2,0 UV-I 497 W/m 15,3 C 30,9 C 4,0 km/h (1 Bft) 0,00 %
08.08.2015 09:58 31,2 C 39 % 1017,0 hPa 0,0 l/m 0,0 km/h (0 Bft) N-NW 331 5 min 0,000 mm 2,0 UV-I 508 W/m 15,6 C 31,2 C 0,0 km/h (0 Bft) 0,00 %
08.08.2015 10:03 31,2 C 39 % 1017,2 hPa 0,0 l/m 0,0 km/h (0 Bft) N-NO 30 5 min 0,000 mm 2,0 UV-I 519 W/m 15,6 C 31,2 C 0,0 km/h (0 Bft) 0,00 %
08.08.2015 10:08 31,2 C 40 % 1017,1 hPa 0,0 l/m 0,4 km/h (0 Bft) N-NW 341 5 min 0,000 mm 2,0 UV-I 531 W/m 16,0 C 31,2 C 4,0 km/h (1 Bft) 0,00 %
08.08.2015 10:13 31,2 C 40 % 1017,3 hPa 0,0 l/m 0,7 km/h (0 Bft) N-NW 341 5 min 0,000 mm 2,0 UV-I 544 W/m 16,0 C 31,2 C 4,0 km/h (1 Bft) 0,00 %
08.08.2015 10:18 31,3 C 39 % 1017,3 hPa 0,0 l/m 0,0 km/h (0 Bft) O-NO 57 5 min 0,000 mm 2,0 UV-I 556 W/m 15,7 C 31,3 C 0,0 km/h (0 Bft) 0,00 %
08.08.2015 10:23 31,5 C 40 % 1017,2 hPa 0,0 l/m 0,0 km/h (0 Bft) O 90 5 min 0,000 mm 2,0 UV-I 571 W/m 16,2 C 31,5 C 0,0 km/h (0 Bft) 0,00 %
08.08.2015 10:28 31,9 C 39 % 1017,0 hPa 0,0 l/m 0,0 km/h (0 Bft) NO 43 5 min 0,000 mm 2,0 UV-I 583 W/m 16,2 C 31,9 C 0,0 km/h (0 Bft) 0,00 %
08.08.2015 10:33 32,3 C 38 % 1017,2 hPa 0,0 l/m 0,0 km/h (0 Bft) NO 42 5 min 0,000 mm 2,0 UV-I 600 W/m 16,1 C 32,3 C 0,0 km/h (0 Bft) 0,00 %
08.08.2015 10:38 32,6 C 37 % 1017,2 hPa 0,0 l/m 0,4 km/h (0 Bft) N-NW 334 5 min 0,000 mm 2,0 UV-I 615 W/m 16,0 C 32,6 C 4,0 km/h (1 Bft) 0,00 %
08.08.2015 10:43 32,8 C 34 % 1017,2 hPa 0,0 l/m 0,0 km/h (0 Bft) NO 42 5 min 0,000 mm 3,0 UV-I 630 W/m 14,8 C 32,8 C 0,0 km/h (0 Bft) 0,00 %
08.08.2015 10:48 33,2 C 36 % 1017,2 hPa 0,0 l/m 0,0 km/h (0 Bft) N-NO 24 5 min 0,000 mm 3,0 UV-I 645 W/m 16,1 C 33,2 C 0,0 km/h (0 Bft) 0,00 %
08.08.2015 10:53 33,3 C 37 % 1017,0 hPa 0,0 l/m 1,8 km/h (1 Bft) N-NW 342 5 min 0,000 mm 3,0 UV-I 657 W/m 16,6 C 33,3 C 4,0 km/h (1 Bft) 0,00 %
08.08.2015 10:58 33,2 C 35 % 1017,0 hPa 0,0 l/m 0,0 km/h (0 Bft) NO 51 5 min 0,000 mm 3,0 UV-I 673 W/m 15,6 C 33,2 C 0,0 km/h (0 Bft) 0,00 %
08.08.2015 11:03 33,2 C 37 % 1017,1 hPa 0,0 l/m 0,4 km/h (0 Bft) W 279 5 min 0,000 mm 3,0 UV-I 687 W/m 16,5 C 33,2 C 4,0 km/h (1 Bft) 0,00 %
08.08.2015 11:08 33,2 C 36 % 1017,2 hPa 0,0 l/m 0,0 km/h (0 Bft) O-NO 66 5 min 0,000 mm 3,0 UV-I 698 W/m 16,1 C 33,2 C 0,0 km/h (0 Bft) 0,00 %
08.08.2015 11:13 33,3 C 36 % 1017,2 hPa 0,0 l/m 5,8 km/h (2 Bft) W-NW 282 5 min 0,000 mm 3,0 UV-I 708 W/m 16,2 C 33,3 C 7,9 km/h (2 Bft) 0,00 %
08.08.2015 11:18 33,3 C 38 % 1017,3 hPa 0,0 l/m 0,0 km/h (0 Bft) N-NO 25 5 min 0,000 mm 3,0 UV-I 716 W/m 17,0 C 33,3 C 0,0 km/h (0 Bft) 0,00 %
08.08.2015 11:23 33,0 C 40 % 1017,2 hPa 0,0 l/m 1,4 km/h (1 Bft) N-NW 346 5 min 0,000 mm 3,0 UV-I 724 W/m 17,6 C 33,0 C 4,0 km/h (1 Bft) 0,00 %
08.08.2015 11:28 33,0 C 35 % 1017,0 hPa 0,0 l/m 3,2 km/h (1 Bft) W-NW 288 5 min 0,000 mm 3,0 UV-I 744 W/m 15,5 C 33,0 C 7,9 km/h (2 Bft) 0,00 %
08.08.2015 11:33 33,4 C 37 % 1017,0 hPa 0,0 l/m 1,8 km/h (1 Bft) W-NW 300 5 min 0,000 mm 3,0 UV-I 757 W/m 16,7 C 33,4 C 4,0 km/h (1 Bft) 0,00 %
08.08.2015 11:38 33,8 C 34 % 1017,0 hPa 0,0 l/m 2,2 km/h (1 Bft) O-NO 63 5 min 0,000 mm 4,0 UV-I 758 W/m 15,7 C 33,8 C 4,0 km/h (1 Bft) 0,00 %
08.08.2015 11:43 34,1 C 34 % 1016,9 hPa 0,0 l/m 0,0 km/h (0 Bft) NO 38 5 min 0,000 mm 4,0 UV-I 778 W/m 16,0 C 34,1 C 0,0 km/h (0 Bft) 0,00 %
08.08.2015 11:48 34,1 C 32 % 1017,0 hPa 0,0 l/m 0,0 km/h (0 Bft) NO 56 5 min 0,000 mm 4,0 UV-I 785 W/m 15,0 C 34,1 C 0,0 km/h (0 Bft) 0,00 %
08.08.2015 11:53 34,2 C 33 % 1017,0 hPa 0,0 l/m 0,0 km/h (0 Bft) NO 39 5 min 0,000 mm 4,0 UV-I 786 W/m 15,6 C 34,2 C 0,0 km/h (0 Bft) 0,00 %
08.08.2015 11:58 34,3 C 33 % 1016,9 hPa 0,0 l/m 0,4 km/h (0 Bft) NO 42 5 min 0,000 mm 4,0 UV-I 801 W/m 15,7 C 34,3 C 4,0 km/h (1 Bft) 0,00 %
08.08.2015 12:03 34,4 C 32 % 1016,9 hPa 0,0 l/m 0,0 km/h (0 Bft) O-NO 59 5 min 0,000 mm 4,0 UV-I 804 W/m 15,3 C 34,4 C 0,0 km/h (0 Bft) 0,00 %
08.08.2015 12:08 34,5 C 33 % 1016,7 hPa 0,0 l/m 0,0 km/h (0 Bft) NO 35 5 min 0,000 mm 4,0 UV-I 807 W/m 15,8 C 34,5 C 0,0 km/h (0 Bft) 0,00 %
08.08.2015 12:13 34,8 C 31 % 1016,7 hPa 0,0 l/m 0,0 km/h (0 Bft) NO 37 5 min 0,000 mm 4,0 UV-I 812 W/m 15,1 C 34,8 C 0,0 km/h (0 Bft) 0,00 %
08.08.2015 12:18 34,9 C 33 % 1016,8 hPa 0,0 l/m 0,0 km/h (0 Bft) NO 34 5 min 0,000 mm 4,0 UV-I 820 W/m 16,2 C 34,9 C 0,0 km/h (0 Bft) 0,00 %
08.08.2015 12:23 34,7 C 32 % 1016,8 hPa 0,0 l/m 0,0 km/h (0 Bft) O-NO 58 5 min 0,000 mm 4,0 UV-I 827 W/m 15,5 C 34,7 C 0,0 km/h (0 Bft) 0,00 %
08.08.2015 12:28 34,4 C 33 % 1016,8 hPa 0,0 l/m 0,4 km/h (0 Bft) N-NW 344 5 min 0,000 mm 4,0 UV-I 833 W/m 15,8 C 34,4 C 4,0 km/h (1 Bft) 0,00 %
08.08.2015 12:33 34,2 C 32 % 1016,7 hPa 0,0 l/m 0,4 km/h (0 Bft) N-NO 31 5 min 0,000 mm 4,0 UV-I 832 W/m 15,1 C 34,2 C 4,0 km/h (1 Bft) 0,00 %
08.08.2015 12:38 34,1 C 32 % 1016,9 hPa 0,0 l/m 0,0 km/h (0 Bft) O-NO 66 5 min 0,000 mm 4,0 UV-I 830 W/m 15,0 C 34,1 C 0,0 km/h (0 Bft) 0,00 %
08.08.2015 12:43 34,2 C 34 % 1016,7 hPa 0,0 l/m 0,0 km/h (0 Bft) NO 55 5 min 0,000 mm 4,0 UV-I 839 W/m 16,1 C 34,2 C 0,0 km/h (0 Bft) 0,00 %
08.08.2015 12:48 34,5 C 33 % 1016,7 hPa 0,0 l/m 7,9 km/h (2 Bft) W 269 5 min 0,000 mm 4,0 UV-I 844 W/m 15,8 C 34,5 C 7,9 km/h (2 Bft) 0,00 %
08.08.2015 12:53 34,5 C 32 % 1016,6 hPa 0,0 l/m 0,7 km/h (0 Bft) N-NO 12 5 min 0,000 mm 4,0 UV-I 844 W/m 15,4 C 34,5 C 4,0 km/h (1 Bft) 0,00 %
08.08.2015 12:58 34,3 C 32 % 1016,6 hPa 0,0 l/m 1,8 km/h (1 Bft) O-NO 71 5 min 0,000 mm 4,0 UV-I 852 W/m 15,2 C 34,3 C 4,0 km/h (1 Bft) 0,00 %
08.08.2015 13:03 34,3 C 33 % 1016,3 hPa 0,0 l/m 0,0 km/h (0 Bft) NO 43 5 min 0,000 mm 4,0 UV-I 846 W/m 15,7 C 34,3 C 0,0 km/h (0 Bft) 0,00 %
08.08.2015 13:08 34,4 C 33 % 1016,5 hPa 0,0 l/m 2,2 km/h (1 Bft) N-NW 340 5 min 0,000 mm 4,0 UV-I 855 W/m 15,8 C 34,4 C 7,9 km/h (2 Bft) 0,00 %
08.08.2015 13:13 34,4 C 33 % 1016,6 hPa 0,0 l/m 4,0 km/h (1 Bft) W 274 5 min 0,000 mm 4,0 UV-I 855 W/m 15,8 C 34,4 C 7,9 km/h (2 Bft) 0,00 %
08.08.2015 13:18 34,5 C 34 % 1016,3 hPa 0,0 l/m 0,0 km/h (0 Bft) N-NO 17 5 min 0,000 mm 4,0 UV-I 866 W/m 16,3 C 34,5 C 0,0 km/h (0 Bft) 0,00 %
08.08.2015 13:23 34,7 C 32 % 1016,3 hPa 0,0 l/m 0,4 km/h (0 Bft) N-NW 334 5 min 0,000 mm 4,0 UV-I 870 W/m 15,5 C 34,7 C 4,0 km/h (1 Bft) 0,00 %
08.08.2015 13:28 34,9 C 31 % 1016,3 hPa 0,0 l/m 6,5 km/h (2 Bft) W-NW 293 5 min 0,000 mm 4,0 UV-I 875 W/m 15,2 C 34,9 C 7,9 km/h (2 Bft) 0,00 %
08.08.2015 13:33 35,0 C 30 % 1016,2 hPa 0,0 l/m 3,2 km/h (1 Bft) N-NW 342 5 min 0,000 mm 4,0 UV-I 890 W/m 14,8 C 35,0 C 4,0 km/h (1 Bft) 0,00 %
08.08.2015 13:38 35,1 C 30 % 1016,1 hPa 0,0 l/m 1,4 km/h (1 Bft) N 358 5 min 0,000 mm 4,0 UV-I 880 W/m 14,9 C 35,1 C 4,0 km/h (1 Bft) 0,00 %
08.08.2015 13:43 35,2 C 31 % 1015,9 hPa 0,0 l/m 3,2 km/h (1 Bft) N-NW 340 5 min 0,000 mm 4,0 UV-I 890 W/m 15,5 C 35,2 C 7,9 km/h (2 Bft) 0,00 %
08.08.2015 13:48 35,2 C 30 % 1015,9 hPa 0,0 l/m 4,7 km/h (1 Bft) NW 324 5 min 0,000 mm 4,0 UV-I 887 W/m 15,0 C 35,2 C 7,9 km/h (2 Bft) 0,00 %
08.08.2015 13:53 35,1 C 30 % 1015,9 hPa 0,0 l/m 1,8 km/h (1 Bft) W 265 5 min 0,000 mm 4,0 UV-I 902 W/m 14,9 C 35,1 C 4,0 km/h (1 Bft) 0,00 %
08.08.2015 13:58 35,1 C 30 % 1015,7 hPa 0,0 l/m 4,3 km/h (1 Bft) NW 316 5 min 0,000 mm 4,0 UV-I 908 W/m 14,9 C 35,1 C 7,9 km/h (2 Bft) 0,00 %
08.08.2015 14:03 35,3 C 30 % 1015,6 hPa 0,0 l/m 0,7 km/h (0 Bft) N 7 5 min 0,000 mm 4,0 UV-I 908 W/m 15,0 C 35,3 C 4,0 km/h (1 Bft) 0,00 %
08.08.2015 14:08 35,2 C 32 % 1015,6 hPa 0,0 l/m 0,0 km/h (0 Bft) NW 325 5 min 0,000 mm 4,0 UV-I 918 W/m 16,0 C 35,2 C 0,0 km/h (0 Bft) 0,00 %
08.08.2015 14:13 35,1 C 31 % 1015,5 hPa 0,0 l/m 1,4 km/h (1 Bft) N-NO 17 5 min 0,000 mm 4,0 UV-I 917 W/m 15,4 C 35,1 C 4,0 km/h (1 Bft) 0,00 %
08.08.2015 14:18 35,0 C 29 % 1015,5 hPa 0,0 l/m 0,0 km/h (0 Bft) NO 48 5 min 0,000 mm 4,0 UV-I 928 W/m 14,3 C 35,0 C 0,0 km/h (0 Bft) 0,00 %
08.08.2015 14:23 35,2 C 30 % 1015,6 hPa 0,0 l/m 0,0 km/h (0 Bft) NO 35 5 min 0,000 mm 4,0 UV-I 937 W/m 15,0 C 35,2 C 0,0 km/h (0 Bft) 0,00 %
08.08.2015 14:28 35,5 C 29 % 1015,4 hPa 0,0 l/m 0,7 km/h (0 Bft) SW 216 5 min 0,000 mm 4,0 UV-I 945 W/m 14,7 C 35,5 C 4,0 km/h (1 Bft) 0,00 %
08.08.2015 14:33 35,7 C 29 % 1015,6 hPa 0,0 l/m 0,0 km/h (0 Bft) NO 37 5 min 0,000 mm 4,0 UV-I 946 W/m 14,9 C 35,7 C 0,0 km/h (0 Bft) 0,00 %
08.08.2015 14:38 35,5 C 30 % 1015,5 hPa 0,0 l/m 0,0 km/h (0 Bft) N 350 5 min 0,000 mm 4,0 UV-I 954 W/m 15,2 C 35,5 C 0,0 km/h (0 Bft) 0,00 %
08.08.2015 14:43 35,5 C 29 % 1015,3 hPa 0,0 l/m 1,4 km/h (1 Bft) O-NO 61 5 min 0,000 mm 3,0 UV-I 937 W/m 14,7 C 35,5 C 4,0 km/h (1 Bft) 0,00 %
08.08.2015 14:48 35,3 C 30 % 1015,5 hPa 0,0 l/m 0,0 km/h (0 Bft) O-NO 68 5 min 0,000 mm 3,0 UV-I 938 W/m 15,0 C 35,3 C 0,0 km/h (0 Bft) 0,00 %
08.08.2015 14:53 35,4 C 28 % 1015,3 hPa 0,0 l/m 0,0 km/h (0 Bft) N-NW 328 5 min 0,000 mm 3,0 UV-I 952 W/m 14,1 C 35,4 C 0,0 km/h (0 Bft) 0,00 %
08.08.2015 14:58 36,0 C 27 % 1015,3 hPa 0,0 l/m 0,7 km/h (0 Bft) N 351 5 min 0,000 mm 3,0 UV-I 945 W/m 14,0 C 36,0 C 4,0 km/h (1 Bft) 0,00 %
08.08.2015 15:03 36,5 C 28 % 1015,3 hPa 0,0 l/m 0,4 km/h (0 Bft) N-NW 337 5 min 0,000 mm 3,0 UV-I 954 W/m 15,0 C 36,5 C 4,0 km/h (1 Bft) 0,00 %
08.08.2015 15:08 36,6 C 25 % 1015,2 hPa 0,0 l/m 0,0 km/h (0 Bft) NO 44 5 min 0,000 mm 3,0 UV-I 966 W/m 13,3 C 36,6 C 0,0 km/h (0 Bft) 0,00 %
08.08.2015 15:13 36,6 C 26 % 1015,2 hPa 0,0 l/m 5,8 km/h (2 Bft) N-NW 341 5 min 0,000 mm 3,0 UV-I 992 W/m 13,9 C 36,6 C 7,9 km/h (2 Bft) 0,00 %
08.08.2015 15:18 36,9 C 24 % 1015,1 hPa 0,0 l/m 0,4 km/h (0 Bft) NW 322 5 min 0,000 mm 3,0 UV-I 990 W/m 13,0 C 36,9 C 4,0 km/h (1 Bft) 0,00 %
08.08.2015 15:23 37,1 C 23 % 1015,0 hPa 0,0 l/m 0,7 km/h (0 Bft) O-NO 70 5 min 0,000 mm 3,0 UV-I 961 W/m 12,5 C 37,1 C 4,0 km/h (1 Bft) 0,00 %
08.08.2015 15:28 37,0 C 23 % 1015,0 hPa 0,0 l/m 0,0 km/h (0 Bft) O-NO 67 5 min 0,000 mm 2,0 UV-I 713 W/m 12,4 C 37,0 C 0,0 km/h (0 Bft) 0,00 %
08.08.2015 15:33 36,7 C 23 % 1015,0 hPa 0,0 l/m 0,0 km/h (0 Bft) O 89 5 min 0,000 mm 3,0 UV-I 963 W/m 12,1 C 36,7 C 0,0 km/h (0 Bft) 0,00 %
08.08.2015 15:38 36,6 C 23 % 1014,8 hPa 0,0 l/m 0,0 km/h (0 Bft) NO 40 0 min 0,000 mm 2,0 UV-I 359 W/m 12,1 C 36,6 C 0,0 km/h (0 Bft) 0,00 %
08.08.2015 15:43 36,8 C 25 % 1015,0 hPa 0,0 l/m 0,0 km/h (0 Bft) O 90 5 min 0,000 mm 2,0 UV-I 936 W/m 13,5 C 36,8 C 0,0 km/h (0 Bft) 0,00 %
08.08.2015 15:48 36,9 C 28 % 1015,0 hPa 0,0 l/m 0,4 km/h (0 Bft) NW 310 0 min 0,000 mm 2,0 UV-I 358 W/m 15,3 C 36,9 C 4,0 km/h (1 Bft) 0,00 %
08.08.2015 15:53 36,7 C 25 % 1014,9 hPa 0,0 l/m 0,0 km/h (0 Bft) NO 43 0 min 0,000 mm 2,0 UV-I 356 W/m 13,4 C 36,7 C 0,0 km/h (0 Bft) 0,00 %
08.08.2015 15:58 36,4 C 27 % 1014,8 hPa 0,0 l/m 0,0 km/h (0 Bft) S-SW 206 0 min 0,000 mm 2,0 UV-I 334 W/m 14,4 C 36,4 C 0,0 km/h (0 Bft) 0,00 %
08.08.2015 16:03 36,2 C 29 % 1014,8 hPa 0,0 l/m 0,0 km/h (0 Bft) NO 53 5 min 0,000 mm 2,0 UV-I 366 W/m 15,3 C 36,2 C 0,0 km/h (0 Bft) 0,00 %
08.08.2015 16:08 35,8 C 29 % 1014,9 hPa 0,0 l/m 0,0 km/h (0 Bft) NO 50 0 min 0,000 mm 2,0 UV-I 356 W/m 14,9 C 35,8 C 0,0 km/h (0 Bft) 0,00 %
08.08.2015 16:13 35,4 C 29 % 1015,1 hPa 0,0 l/m 0,0 km/h (0 Bft) NO 40 0 min 0,000 mm 2,0 UV-I 349 W/m 14,6 C 35,4 C 0,0 km/h (0 Bft) 0,00 %
08.08.2015 16:18 35,3 C 29 % 1015,1 hPa 0,0 l/m 0,0 km/h (0 Bft) NO 39 5 min 0,000 mm 2,0 UV-I 358 W/m 14,5 C 35,3 C 0,0 km/h (0 Bft) 0,00 %
08.08.2015 16:23 35,3 C 29 % 1015,0 hPa 0,0 l/m 0,0 km/h (0 Bft) N-NO 29 5 min 0,000 mm 2,0 UV-I 380 W/m 14,5 C 35,3 C 0,0 km/h (0 Bft) 0,00 %
08.08.2015 16:28 35,4 C 25 % 1015,1 hPa 0,0 l/m 0,0 km/h (0 Bft) N-NO 19 5 min 0,000 mm 2,0 UV-I 409 W/m 12,3 C 35,4 C 0,0 km/h (0 Bft) 0,00 %
08.08.2015 16:33 35,6 C 25 % 1014,9 hPa 0,0 l/m 0,0 km/h (0 Bft) N-NO 22 5 min 0,000 mm 2,0 UV-I 494 W/m 12,5 C 35,6 C 0,0 km/h (0 Bft) 0,00 %
08.08.2015 16:38 36,0 C 28 % 1015,0 hPa 0,0 l/m 0,0 km/h (0 Bft) NO 36 5 min 0,000 mm 2,0 UV-I 630 W/m 14,6 C 36,0 C 0,0 km/h (0 Bft) 0,00 %
08.08.2015 16:43 36,2 C 23 % 1014,8 hPa 0,0 l/m 0,0 km/h (0 Bft) NO 42 5 min 0,000 mm 2,0 UV-I 388 W/m 11,7 C 36,2 C 0,0 km/h (0 Bft) 0,00 %
08.08.2015 16:48 36,2 C 25 % 1015,0 hPa 0,0 l/m 0,0 km/h (0 Bft) NO 52 5 min 0,000 mm 2,0 UV-I 394 W/m 13,0 C 36,2 C 0,0 km/h (0 Bft) 0,00 %
08.08.2015 16:53 35,9 C 27 % 1014,9 hPa 0,0 l/m 0,0 km/h (0 Bft) N-NO 32 5 min 0,000 mm 1,0 UV-I 732 W/m 13,9 C 35,9 C 0,0 km/h (0 Bft) 0,00 %
08.08.2015 16:58 35,7 C 26 % 1014,9 hPa 0,0 l/m 1,8 km/h (1 Bft) NW 311 5 min 0,000 mm 1,0 UV-I 782 W/m 13,2 C 35,7 C 4,0 km/h (1 Bft) 0,00 %
08.08.2015 17:03 35,9 C 27 % 1014,9 hPa 0,0 l/m 3,2 km/h (1 Bft) O-NO 70 5 min 0,000 mm 1,0 UV-I 758 W/m 13,9 C 35,9 C 7,9 km/h (2 Bft) 0,00 %
08.08.2015 17:08 35,8 C 29 % 1015,0 hPa 0,0 l/m 2,2 km/h (1 Bft) N-NW 338 5 min 0,000 mm 1,0 UV-I 783 W/m 14,9 C 35,8 C 4,0 km/h (1 Bft) 0,00 %
08.08.2015 17:13 35,3 C 29 % 1014,8 hPa 0,0 l/m 4,7 km/h (1 Bft) N-NW 339 5 min 0,000 mm 1,0 UV-I 814 W/m 14,5 C 35,3 C 7,9 km/h (2 Bft) 0,00 %
08.08.2015 17:18 35,0 C 31 % 1014,9 hPa 0,0 l/m 2,9 km/h (1 Bft) NO 38 5 min 0,000 mm 1,0 UV-I 804 W/m 15,3 C 35,0 C 4,0 km/h (1 Bft) 0,00 %
08.08.2015 17:23 34,6 C 30 % 1014,9 hPa 0,0 l/m 4,3 km/h (1 Bft) O-NO 57 5 min 0,000 mm 1,0 UV-I 360 W/m 14,5 C 34,6 C 7,9 km/h (2 Bft) 0,00 %
08.08.2015 17:28 33,9 C 32 % 1014,9 hPa 0,0 l/m 0,0 km/h (0 Bft) NO 44 5 min 0,000 mm 1,0 UV-I 327 W/m 14,8 C 33,9 C 0,0 km/h (0 Bft) 0,00 %
08.08.2015 17:33 33,3 C 32 % 1014,9 hPa 0,0 l/m 1,4 km/h (1 Bft) N-NO 14 5 min 0,000 mm 1,0 UV-I 280 W/m 14,3 C 33,3 C 4,0 km/h (1 Bft) 0,00 %
08.08.2015 17:39 33,1 C 34 % 1014,9 hPa 0,0 l/m 0,0 km/h (0 Bft) NO 37 6 min 0,000 mm 1,0 UV-I 299 W/m 15,1 C 33,1 C 0,0 km/h (0 Bft) 0,00 %
08.08.2015 17:44 32,8 C 34 % 1015,0 hPa 0,0 l/m 1,4 km/h (1 Bft) W-NW 282 0 min 0,000 mm 1,0 UV-I 229 W/m 14,8 C 32,8 C 4,0 km/h (1 Bft) 0,00 %
08.08.2015 17:49 32,6 C 33 % 1014,8 hPa 0,0 l/m 1,8 km/h (1 Bft) N-NW 336 0 min 0,000 mm 1,0 UV-I 186 W/m 14,2 C 32,6 C 4,0 km/h (1 Bft) 0,00 %
08.08.2015 17:54 32,3 C 34 % 1015,0 hPa 0,0 l/m 0,0 km/h (0 Bft) N 353 0 min 0,000 mm 1,0 UV-I 169 W/m 14,4 C 32,3 C 0,0 km/h (0 Bft) 0,00 %
08.08.2015 17:59 32,0 C 32 % 1014,9 hPa 0,0 l/m 0,0 km/h (0 Bft) NO 38 0 min 0,000 mm 1,0 UV-I 155 W/m 13,2 C 32,0 C 0,0 km/h (0 Bft) 0,00 %
08.08.2015 18:04 31,8 C 33 % 1014,9 hPa 0,0 l/m 0,0 km/h (0 Bft) O-NO 76 0 min 0,000 mm 1,0 UV-I 145 W/m 13,5 C 31,8 C 0,0 km/h (0 Bft) 0,00 %
08.08.2015 18:09 31,6 C 33 % 1015,1 hPa 0,0 l/m 0,0 km/h (0 Bft) NO 49 0 min 0,000 mm 1,0 UV-I 135 W/m 13,3 C 31,6 C 0,0 km/h (0 Bft) 0,00 %
08.08.2015 18:14 31,4 C 34 % 1014,8 hPa 0,0 l/m 0,0 km/h (0 Bft) NO 41 0 min 0,000 mm 1,0 UV-I 125 W/m 13,6 C 31,4 C 0,0 km/h (0 Bft) 0,00 %
08.08.2015 18:19 31,3 C 34 % 1014,8 hPa 0,0 l/m 0,0 km/h (0 Bft) O-NO 76 0 min 0,000 mm 1,0 UV-I 119 W/m 13,5 C 31,3 C 0,0 km/h (0 Bft) 0,00 %
08.08.2015 18:24 31,2 C 35 % 1014,9 hPa 0,0 l/m 0,0 km/h (0 Bft) O-NO 67 0 min 0,000 mm 1,0 UV-I 116 W/m 13,9 C 31,2 C 0,0 km/h (0 Bft) 0,00 %
08.08.2015 18:29 31,1 C 35 % 1014,8 hPa 0,0 l/m 0,0 km/h (0 Bft) O-SO 114 0 min 0,000 mm 1,0 UV-I 115 W/m 13,8 C 31,1 C 0,0 km/h (0 Bft) 0,00 %
08.08.2015 18:34 31,1 C 35 % 1014,8 hPa 0,0 l/m 0,0 km/h (0 Bft) O-NO 67 0 min 0,000 mm 1,0 UV-I 116 W/m 13,8 C 31,1 C 0,0 km/h (0 Bft) 0,00 %
08.08.2015 18:39 31,0 C 37 % 1014,9 hPa 0,0 l/m 0,0 km/h (0 Bft) N-NO 30 0 min 0,000 mm 1,0 UV-I 122 W/m 14,6 C 31,0 C 0,0 km/h (0 Bft) 0,00 %
08.08.2015 18:44 30,9 C 39 % 1015,3 hPa 0,0 l/m 0,0 km/h (0 Bft) N 349 5 min 0,000 mm 1,0 UV-I 173 W/m 15,3 C 30,9 C 0,0 km/h (0 Bft) 0,00 %
08.08.2015 18:49 30,7 C 38 % 1015,3 hPa 0,0 l/m 0,0 km/h (0 Bft) NO 46 5 min 0,000 mm 1,0 UV-I 314 W/m 14,7 C 30,7 C 0,0 km/h (0 Bft) 0,00 %
08.08.2015 18:54 30,7 C 39 % 1015,6 hPa 0,0 l/m 0,0 km/h (0 Bft) N-NO 30 5 min 0,000 mm 1,0 UV-I 359 W/m 15,1 C 30,7 C 0,0 km/h (0 Bft) 0,00 %
08.08.2015 18:59 31,0 C 38 % 1015,7 hPa 0,0 l/m 3,2 km/h (1 Bft) N 352 5 min 0,000 mm 1,0 UV-I 414 W/m 15,0 C 31,0 C 7,9 km/h (2 Bft) 0,00 %
08.08.2015 19:04 31,2 C 37 % 1015,4 hPa 0,0 l/m 0,0 km/h (0 Bft) NO 38 5 min 0,000 mm 1,0 UV-I 405 W/m 14,8 C 31,2 C 0,0 km/h (0 Bft) 0,00 %
08.08.2015 19:09 31,1 C 38 % 1015,6 hPa 0,0 l/m 0,0 km/h (0 Bft) N-NO 32 5 min 0,000 mm 1,0 UV-I 370 W/m 15,1 C 31,1 C 0,0 km/h (0 Bft) 0,00 %
08.08.2015 19:14 31,1 C 36 % 1015,5 hPa 0,0 l/m 0,0 km/h (0 Bft) NO 51 5 min 0,000 mm 1,0 UV-I 334 W/m 14,2 C 31,1 C 0,0 km/h (0 Bft) 0,00 %
08.08.2015 19:19 31,1 C 39 % 1015,6 hPa 0,0 l/m 0,0 km/h (0 Bft) N-NO 16 5 min 0,000 mm 1,0 UV-I 259 W/m 15,5 C 31,1 C 0,0 km/h (0 Bft) 0,00 %
08.08.2015 19:24 30,9 C 39 % 1015,6 hPa 0,0 l/m 0,0 km/h (0 Bft) N 7 5 min 0,000 mm 0,0 UV-I 195 W/m 15,3 C 30,9 C 0,0 km/h (0 Bft) 0,00 %
08.08.2015 19:29 30,6 C 39 % 1015,5 hPa 0,0 l/m 0,0 km/h (0 Bft) N 359 5 min 0,000 mm 0,0 UV-I 248 W/m 15,0 C 30,6 C 0,0 km/h (0 Bft) 0,00 %
08.08.2015 19:34 30,1 C 40 % 1015,6 hPa 0,0 l/m 0,0 km/h (0 Bft) NO 37 5 min 0,000 mm 0,0 UV-I 217 W/m 15,0 C 30,1 C 0,0 km/h (0 Bft) 0,00 %
08.08.2015 19:39 29,8 C 40 % 1015,6 hPa 0,0 l/m 0,0 km/h (0 Bft) NO 34 5 min 0,000 mm 0,0 UV-I 146 W/m 14,7 C 29,8 C 0,0 km/h (0 Bft) 0,00 %
08.08.2015 19:44 29,7 C 40 % 1015,6 hPa 0,0 l/m 0,0 km/h (0 Bft) NO 40 5 min 0,000 mm 0,0 UV-I 82 W/m 14,6 C 29,7 C 0,0 km/h (0 Bft) 0,00 %
08.08.2015 19:49 29,6 C 40 % 1015,4 hPa 0,0 l/m 0,0 km/h (0 Bft) NO 49 5 min 0,000 mm 0,0 UV-I 53 W/m 14,5 C 29,6 C 0,0 km/h (0 Bft) 0,00 %
08.08.2015 19:54 29,3 C 42 % 1015,4 hPa 0,0 l/m 0,0 km/h (0 Bft) NO 40 0 min 0,000 mm 0,0 UV-I 39 W/m 15,0 C 29,3 C 0,0 km/h (0 Bft) 0,00 %
08.08.2015 19:59 28,8 C 42 % 1015,5 hPa 0,0 l/m 0,0 km/h (0 Bft) NO 40 0 min 0,000 mm 0,0 UV-I 30 W/m 14,6 C 28,8 C 0,0 km/h (0 Bft) 0,00 %
08.08.2015 20:04 28,4 C 43 % 1015,3 hPa 0,0 l/m 0,0 km/h (0 Bft) NO 39 0 min 0,000 mm 0,0 UV-I 23 W/m 14,6 C 28,4 C 0,0 km/h (0 Bft) 0,00 %
08.08.2015 20:09 27,9 C 44 % 1015,4 hPa 0,0 l/m 0,0 km/h (0 Bft) NO 42 0 min 0,000 mm 0,0 UV-I 17 W/m 14,5 C 27,9 C 0,0 km/h (0 Bft) 0,00 %
08.08.2015 20:14 27,4 C 45 % 1015,4 hPa 0,0 l/m 0,0 km/h (0 Bft) NO 44 0 min 0,000 mm 0,0 UV-I 8 W/m 14,4 C 27,4 C 0,0 km/h (0 Bft) 0,00 %
08.08.2015 20:19 27,1 C 46 % 1015,4 hPa 0,0 l/m 0,0 km/h (0 Bft) NO 47 0 min 0,000 mm 0,0 UV-I 5 W/m 14,5 C 27,1 C 0,0 km/h (0 Bft) 0,00 %
08.08.2015 20:24 26,8 C 46 % 1015,3 hPa 0,0 l/m 0,0 km/h (0 Bft) NO 35 0 min 0,000 mm 0,0 UV-I 0 W/m 14,2 C 26,8 C 0,0 km/h (0 Bft) 0,00 %
08.08.2015 20:29 26,6 C 47 % 1015,3 hPa 0,0 l/m 0,0 km/h (0 Bft) NO 40 0 min 0,000 mm 0,0 UV-I 0 W/m 14,3 C 26,6 C 0,0 km/h (0 Bft) 0,00 %
08.08.2015 20:34 26,5 C 48 % 1015,3 hPa 0,0 l/m 0,0 km/h (0 Bft) NO 47 0 min 0,000 mm 0,0 UV-I 0 W/m 14,6 C 26,5 C 0,0 km/h (0 Bft) 0,00 %
08.08.2015 20:39 26,4 C 49 % 1015,6 hPa 0,0 l/m 0,0 km/h (0 Bft) NO 47 0 min 0,000 mm 0,0 UV-I 0 W/m 14,8 C 26,4 C 0,0 km/h (0 Bft) 0,00 %
08.08.2015 20:44 26,2 C 49 % 1015,5 hPa 0,0 l/m 0,0 km/h (0 Bft) NO 47 0 min 0,000 mm 0,0 UV-I 0 W/m 14,6 C 26,2 C 0,0 km/h (0 Bft) 0,00 %
08.08.2015 20:49 25,9 C 50 % 1015,6 hPa 0,0 l/m 0,0 km/h (0 Bft) NO 36 0 min 0,000 mm 0,0 UV-I 0 W/m 14,7 C 25,9 C 0,0 km/h (0 Bft) 0,00 %
08.08.2015 20:54 25,5 C 51 % 1015,7 hPa 0,0 l/m 0,0 km/h (0 Bft) NO 34 0 min 0,000 mm 0,0 UV-I 0 W/m 14,6 C 25,5 C 0,0 km/h (0 Bft) 0,00 %
08.08.2015 20:59 25,2 C 54 % 1015,7 hPa 0,0 l/m 0,0 km/h (0 Bft) NO 36 0 min 0,000 mm 0,0 UV-I 0 W/m 15,2 C 25,2 C 0,0 km/h (0 Bft) 0,00 %
08.08.2015 21:04 25,0 C 55 % 1016,0 hPa 0,0 l/m 0,0 km/h (0 Bft) NO 36 0 min 0,000 mm 0,0 UV-I 0 W/m 15,3 C 25,0 C 0,0 km/h (0 Bft) 0,00 %
08.08.2015 21:09 24,6 C 56 % 1016,0 hPa 0,0 l/m 0,0 km/h (0 Bft) NO 44 0 min 0,000 mm 0,0 UV-I 0 W/m 15,2 C 24,6 C 0,0 km/h (0 Bft) 0,00 %
08.08.2015 21:14 24,2 C 57 % 1016,2 hPa 0,0 l/m 0,0 km/h (0 Bft) N-NO 14 0 min 0,000 mm 0,0 UV-I 0 W/m 15,1 C 24,2 C 0,0 km/h (0 Bft) 0,00 %
08.08.2015 21:19 24,1 C 58 % 1016,3 hPa 0,0 l/m 0,0 km/h (0 Bft) NO 56 0 min 0,000 mm 0,0 UV-I 0 W/m 15,3 C 24,1 C 0,0 km/h (0 Bft) 0,00 %
08.08.2015 21:24 24,0 C 60 % 1016,2 hPa 0,0 l/m 0,4 km/h (0 Bft) N-NW 344 0 min 0,000 mm 0,0 UV-I 0 W/m 15,7 C 24,0 C 4,0 km/h (1 Bft) 0,00 %
08.08.2015 21:29 24,0 C 62 % 1016,4 hPa 0,0 l/m 0,0 km/h (0 Bft) NO 52 0 min 0,000 mm 0,0 UV-I 0 W/m 16,3 C 24,0 C 0,0 km/h (0 Bft) 0,00 %
08.08.2015 21:34 23,8 C 62 % 1016,1 hPa 0,0 l/m 0,0 km/h (0 Bft) NO 39 0 min 0,000 mm 0,0 UV-I 0 W/m 16,1 C 23,8 C 0,0 km/h (0 Bft) 0,00 %
08.08.2015 21:39 23,6 C 63 % 1016,3 hPa 0,0 l/m 0,0 km/h (0 Bft) N 356 0 min 0,000 mm 0,0 UV-I 0 W/m 16,1 C 23,6 C 0,0 km/h (0 Bft) 0,00 %
08.08.2015 21:44 23,5 C 64 % 1016,6 hPa 0,0 l/m 0,7 km/h (0 Bft) W-SW 256 0 min 0,000 mm 0,0 UV-I 0 W/m 16,3 C 23,5 C 4,0 km/h (1 Bft) 0,00 %
08.08.2015 21:54 23,6 C 65 % 1016,6 hPa 0,0 l/m 0,7 km/h (0 Bft) N 353 0 min 0,000 mm 0,0 UV-I 0 W/m 16,6 C 23,6 C 4,0 km/h (1 Bft) 0,00 %
08.08.2015 21:59 23,6 C 64 % 1016,6 hPa 0,0 l/m 0,4 km/h (0 Bft) NW 310 0 min 0,000 mm 0,0 UV-I 0 W/m 16,4 C 23,6 C 4,0 km/h (1 Bft) 0,00 %
08.08.2015 22:04 23,6 C 63 % 1016,4 hPa 0,0 l/m 0,7 km/h (0 Bft) W-NW 297 0 min 0,000 mm 0,0 UV-I 0 W/m 16,1 C 23,6 C 4,0 km/h (1 Bft) 0,00 %
08.08.2015 22:09 23,7 C 61 % 1016,4 hPa 0,0 l/m 0,0 km/h (0 Bft) N-NO 13 0 min 0,000 mm 0,0 UV-I 0 W/m 15,7 C 23,7 C 0,0 km/h (0 Bft) 0,00 %
08.08.2015 22:14 23,9 C 60 % 1016,6 hPa 0,0 l/m 0,0 km/h (0 Bft) O-NO 64 0 min 0,000 mm 0,0 UV-I 0 W/m 15,7 C 23,9 C 0,0 km/h (0 Bft) 0,00 %
08.08.2015 22:19 24,1 C 60 % 1016,4 hPa 0,0 l/m 0,4 km/h (0 Bft) N-NW 337 0 min 0,000 mm 0,0 UV-I 0 W/m 15,8 C 24,1 C 4,0 km/h (1 Bft) 0,00 %
08.08.2015 22:24 24,1 C 60 % 1016,4 hPa 0,0 l/m 0,0 km/h (0 Bft) NO 35 0 min 0,000 mm 0,0 UV-I 0 W/m 15,8 C 24,1 C 0,0 km/h (0 Bft) 0,00 %
08.08.2015 22:29 24,2 C 60 % 1016,3 hPa 0,0 l/m 0,4 km/h (0 Bft) N 351 0 min 0,000 mm 0,0 UV-I 0 W/m 15,9 C 24,2 C 4,0 km/h (1 Bft) 0,00 %
08.08.2015 22:34 24,2 C 60 % 1016,4 hPa 0,0 l/m 0,0 km/h (0 Bft) NO 49 0 min 0,000 mm 0,0 UV-I 0 W/m 15,9 C 24,2 C 0,0 km/h (0 Bft) 0,00 %
08.08.2015 22:39 24,1 C 60 % 1016,4 hPa 0,0 l/m 0,0 km/h (0 Bft) O 82 0 min 0,000 mm 0,0 UV-I 0 W/m 15,8 C 24,1 C 0,0 km/h (0 Bft) 0,00 %
08.08.2015 22:44 24,1 C 60 % 1016,6 hPa 0,0 l/m 0,0 km/h (0 Bft) NO 55 0 min 0,000 mm 0,0 UV-I 0 W/m 15,8 C 24,1 C 0,0 km/h (0 Bft) 0,00 %
08.08.2015 22:49 24,1 C 58 % 1016,6 hPa 0,0 l/m 0,4 km/h (0 Bft) O 96 0 min 0,000 mm 0,0 UV-I 0 W/m 15,3 C 24,1 C 4,0 km/h (1 Bft) 0,00 %
08.08.2015 22:54 24,1 C 57 % 1016,6 hPa 0,0 l/m 0,4 km/h (0 Bft) W-SW 256 0 min 0,000 mm 0,0 UV-I 0 W/m 15,0 C 24,1 C 4,0 km/h (1 Bft) 0,00 %
08.08.2015 22:59 24,3 C 55 % 1016,6 hPa 0,0 l/m 0,7 km/h (0 Bft) O 93 0 min 0,000 mm 0,0 UV-I 0 W/m 14,7 C 24,3 C 4,0 km/h (1 Bft) 0,00 %
08.08.2015 23:04 24,4 C 55 % 1016,6 hPa 0,0 l/m 0,0 km/h (0 Bft) NO 54 0 min 0,000 mm 0,0 UV-I 0 W/m 14,8 C 24,4 C 0,0 km/h (0 Bft) 0,00 %
08.08.2015 23:09 24,5 C 55 % 1016,6 hPa 0,0 l/m 0,4 km/h (0 Bft) O-SO 111 0 min 0,000 mm 0,0 UV-I 0 W/m 14,9 C 24,5 C 4,0 km/h (1 Bft) 0,00 %
08.08.2015 23:14 24,5 C 55 % 1016,7 hPa 0,0 l/m 3,2 km/h (1 Bft) N-NW 330 0 min 0,000 mm 0,0 UV-I 0 W/m 14,9 C 24,5 C 7,9 km/h (2 Bft) 0,00 %
08.08.2015 23:19 24,4 C 56 % 1016,6 hPa 0,0 l/m 2,2 km/h (1 Bft) W-SW 255 0 min 0,000 mm 0,0 UV-I 0 W/m 15,0 C 24,4 C 4,0 km/h (1 Bft) 0,00 %
08.08.2015 23:24 24,3 C 56 % 1016,7 hPa 0,0 l/m 1,4 km/h (1 Bft) W-SW 256 0 min 0,000 mm 0,0 UV-I 0 W/m 14,9 C 24,3 C 4,0 km/h (1 Bft) 0,00 %
08.08.2015 23:29 24,3 C 57 % 1016,6 hPa 0,0 l/m 0,0 km/h (0 Bft) NO 56 0 min 0,000 mm 0,0 UV-I 0 W/m 15,2 C 24,3 C 0,0 km/h (0 Bft) 0,00 %
08.08.2015 23:34 24,1 C 57 % 1016,8 hPa 0,0 l/m 3,2 km/h (1 Bft) SW 229 0 min 0,000 mm 0,0 UV-I 0 W/m 15,0 C 24,1 C 4,0 km/h (1 Bft) 0,00 %
08.08.2015 23:39 24,1 C 57 % 1016,9 hPa 0,0 l/m 1,4 km/h (1 Bft) W-NW 298 0 min 0,000 mm 0,0 UV-I 0 W/m 15,0 C 24,1 C 4,0 km/h (1 Bft) 0,00 %
08.08.2015 23:44 24,1 C 57 % 1016,9 hPa 0,0 l/m 0,4 km/h (0 Bft) NO 39 0 min 0,000 mm 0,0 UV-I 0 W/m 15,0 C 24,1 C 4,0 km/h (1 Bft) 0,00 %
08.08.2015 23:49 24,0 C 58 % 1017,1 hPa 0,0 l/m 0,4 km/h (0 Bft) N 9 0 min 0,000 mm 0,0 UV-I 0 W/m 15,2 C 24,0 C 4,0 km/h (1 Bft) 0,00 %
08.08.2015 23:54 23,9 C 60 % 1016,9 hPa 0,0 l/m 1,8 km/h (1 Bft) N-NW 335 0 min 0,000 mm 0,0 UV-I 0 W/m 15,7 C 23,9 C 4,0 km/h (1 Bft) 0,00 %
08.08.2015 23:59 23,7 C 61 % 1017,0 hPa 0,0 l/m 2,2 km/h (1 Bft) N-NW 334 0 min 0,000 mm 0,0 UV-I 0 W/m 15,7 C 23,7 C 4,0 km/h (1 Bft) 0,00 %
_ Min-Zeit 05:48 15:23 15:38 - 00:02 - - - - - - 16:43 05:48 00:02 00:02
Minimum _ 16,8 C 23 % 1014,8 hPa - 0,0 km/h (0 Bft) - - - - - - 11,7 C 16,8 C 0,0 km/h (0 Bft) 0,00 %
_ Max-Zeit 15:23 06:03 10:13 00:02 12:48 - - 17:39 00:02 11:38 15:13 11:23 15:23 11:13 00:02
Maximum _ 37,1 C 86 % 1017,3 hPa 0,0 l/m 7,9 km/h
W (2 Bft)
- - 6 min 0,000 mm 4,0 UV-I 992 W/m 17,6 C 37,1 C 7,9 km/h
W-NW (2 Bft)
0,00 %
Durchschnitt _ 27,2 C 51 % 1015,9 hPa #0,0 l/m 0,4 km/h (0 Bft) N-NW - #11:56 h #0,000 mm 2,3 UV-I 487 W/m 14,9 C 27,2 C 1,1 km/h (1 Bft) 0,00 %